アトラス彗星

C/2022 Q2 ( ATLAS )

English version
Home page
Updated on November 26, 2022

---------------------------------------------------------------------

・ プロフィール

発見日 2022年8月27日
発見光度 19.0等
発見者 Asteroid Terrestrial-Impact Last Alert System (ATLAS) search program

・ 写真集

・ 軌道要素

Epoch 2022 Aug. 9.0 TT = JDT 2459800.5
T 2023 Jan. 31.61951 TT                                 Rudenko
q   1.6436993            (2000.0)            P               Q
n   0.00528443     Peri.   44.08728     +0.63773787     -0.76801790
a  32.6440522      Node   352.94368     -0.76973409     -0.63266271
e   0.9496478      Incl.  151.48635     +0.02828156     +0.09943037
P 187
>From 454 observations 2022 Aug. 27-Nov. 11, mean residual 0".5.

・ 光度変化

        m1 = 13.5 + 5 logΔ + 10.0 log r

---------------------------------------------------------------------

軌道要素はM.P.E.C. 2022-V125に掲載されたものです。
光度グラフはComet for Windowsで作成したものです。

---------------------------------------------------------------------

Copyright(C) Seiichi Yoshida (comet@aerith.net). All rights reserved.